Weather History for Goshen, IN

Change the Weather History Date:

Thursday, October 20, 2011

  Actual Average Record
Temperature  
Mean Temperature 44 °F -  
Max Temperature 48 °F 59 °F 86 °F (1953)
Min Temperature 42 °F 38 °F 21 °F (1952)
Degree Days  
Heating Degree Days 21    
Moisture  
Dew Point 41 °F    
Average Humidity 87    
Maximum Humidity 93    
Minimum Humidity 81    
Precipitation  
Precipitation 0.76 in - - ()
Sea Level Pressure  
Sea Level Pressure 29.45 in    
Wind  
Wind Speed 17 mph (NW)    
Max Wind Speed 23 mph    
Max Gust Speed 33 mph    
Visibility 9 miles    
Events Rain    
Averages and records for this station are not official NWS values.
T = Trace of Precipitation, MM = Missing Value Source: NWS Daily Summary

Daily Weather History Graph

Daily Weather History Graph

Search for Another Location

Airport:

Trip Planner

Search our weather history database for the weather conditions in past years. The results will help you decide how hot, cold, wet, or windy it might be!

Date:

Astronomy

Oct. 20, 2011 Rise Set
Actual Time 8:00 AM EDT 6:54 PM EDT
Civil Twilight 7:32 AM EDT 7:22 PM EDT
Nautical Twilight 7:00 AM EDT 7:55 PM EDT
Astronomical Twilight 6:28 AM EDT 8:27 PM EDT
Moon 12:39 AM EDT (10/20) 3:08 PM EDT (10/20)
Length of Visible Light 11h 50m
Length of Day
10h 54m
Last Quarter, 44% of the Moon is Illuminated
Oct 20
Last Quarter
Oct 26
New
Nov 2
First Quarter
Nov 10
Full
Nov 18
Last Quarter

Hourly Weather History & Observations

Time (EDT) Temp. Windchill Dew Point Humidity Pressure Visibility Wind Dir Wind Speed Gust Speed Precip Events Conditions
12:38 AM 44.6 °F 37.4 °F 41.0 °F 87% 29.31 in 8.0 mi North 16.1 mph 27.6 mph 0.06 in Rain Light Rain
12:53 AM 44.1 °F 37.1 °F 39.9 °F 85% 29.32 in 7.0 mi NNW 15.0 mph 33.4 mph 0.09 in Rain Light Rain
1:01 AM 44.6 °F 35.9 °F 39.2 °F 81% 29.30 in 6.0 mi North 23.0 mph 29.9 mph 0.01 in Rain Rain
1:51 AM 42.8 °F 35.1 °F 39.2 °F 87% 29.29 in 7.0 mi NNW 16.1 mph 25.3 mph 0.09 in Rain Rain
1:53 AM 43.0 °F 34.8 °F 39.9 °F 89% 29.30 in 7.0 mi NNW 18.4 mph 25.3 mph 0.10 in Rain Rain
2:33 AM 42.8 °F 34.8 °F 39.2 °F 87% 29.28 in 6.0 mi NNW 17.3 mph 25.3 mph 0.07 in Rain Rain
2:42 AM 42.8 °F 34.8 °F 39.2 °F 87% 29.28 in 7.0 mi NNW 17.3 mph 24.2 mph 0.09 in Rain Rain
2:53 AM 43.0 °F 35.4 °F 39.9 °F 89% 29.29 in 8.0 mi NNW 16.1 mph 24.2 mph 0.11 in Rain Rain
3:36 AM 42.8 °F 36.2 °F 39.2 °F 87% 29.27 in 9.0 mi NNW 12.7 mph 28.8 mph 0.05 in Rain Rain
3:53 AM 43.0 °F 34.8 °F 39.9 °F 89% 29.28 in 10.0 mi NW 18.4 mph 27.6 mph 0.07 in Rain Light Rain
4:08 AM 42.8 °F 34.5 °F 39.2 °F 87% 29.27 in 10.0 mi NW 18.4 mph 29.9 mph 0.01 in Rain Light Rain
4:17 AM 42.8 °F 34.8 °F 39.2 °F 87% 29.27 in 10.0 mi NW 17.3 mph 29.9 mph 0.02 in Rain Light Rain
4:37 AM 42.8 °F 35.1 °F 39.2 °F 87% 29.26 in 10.0 mi NW 16.1 mph 28.8 mph 0.04 in Rain Light Rain
4:53 AM 43.0 °F 34.8 °F 39.9 °F 89% 29.27 in 10.0 mi NW 18.4 mph 26.5 mph 0.04 in Rain Light Rain
5:53 AM 43.0 °F 34.8 °F 39.9 °F 89% 29.28 in 10.0 mi NW 18.4 mph 25.3 mph 0.03 in Rain Light Rain
6:53 AM 43.0 °F 34.5 °F 39.0 °F 86% 29.29 in 10.0 mi NNW 19.6 mph 28.8 mph 0.05 in Rain Light Rain
7:34 AM 42.8 °F 34.5 °F 39.2 °F 87% 29.30 in 10.0 mi NW 18.4 mph 28.8 mph 0.04 in Rain Light Rain
7:53 AM 42.1 °F 32.8 °F 37.9 °F 85% 29.31 in 10.0 mi NW 21.9 mph 33.4 mph 0.05 in Rain Light Rain
8:50 AM 44.6 °F 36.6 °F 39.2 °F 81% 29.32 in 6.0 mi NW 19.6 mph 32.2 mph 0.02 in Rain Light Rain
8:53 AM 44.1 °F 35.7 °F 41.0 °F 89% 29.33 in 6.0 mi NW 20.7 mph 32.2 mph 0.02 in Rain Light Rain
9:53 AM 45.0 °F 37.9 °F 41.0 °F 86% 29.37 in 10.0 mi NW 16.1 mph 27.6 mph 0.03 in Rain Light Rain
10:34 AM 44.6 °F 37.2 °F 41.0 °F 87% 29.38 in 9.0 mi NW 17.3 mph 26.5 mph 0.02 in Rain Light Rain
10:53 AM 45.0 °F 37.4 °F 41.0 °F 86% 29.40 in 9.0 mi NW 18.4 mph 31.1 mph 0.02 in   Overcast
11:53 AM 46.0 °F 39.6 °F 41.0 °F 83% 29.43 in 10.0 mi NW 15.0 mph 23.0 mph N/A   Overcast
12:53 PM 46.9 °F - 42.1 °F 83% 29.45 in 10.0 mi NW 16.1 mph 26.5 mph 0.00 in   Overcast
1:53 PM 46.9 °F - 42.1 °F 83% 29.47 in 8.0 mi NW 18.4 mph 24.2 mph 0.01 in Rain Light Rain
2:53 PM 46.9 °F - 43.0 °F 86% 29.50 in 4.0 mi NW 20.7 mph 31.1 mph 0.03 in Rain Light Rain
4:53 PM 45.0 °F 37.1 °F 41.0 °F 86% 29.59 in 9.0 mi WNW 19.6 mph 29.9 mph 0.06 in Rain Light Rain
5:49 PM 44.6 °F 36.6 °F 42.8 °F 93% 29.62 in 7.0 mi WNW 19.6 mph 28.8 mph 0.02 in Rain Light Rain
5:53 PM 45.0 °F 37.6 °F 41.0 °F 86% 29.64 in 8.0 mi WNW 17.3 mph 28.8 mph 0.02 in Rain Light Rain
6:00 PM 44.6 °F 36.9 °F 41.0 °F 87% 29.63 in 10.0 mi WNW 18.4 mph 26.5 mph 0.00 in Rain Light Rain
6:53 PM 45.0 °F 37.1 °F 41.0 °F 86% 29.69 in 10.0 mi WNW 19.6 mph 29.9 mph 0.03 in Rain Light Rain
8:17 PM 44.6 °F 38.1 °F 42.8 °F 93% 29.73 in 10.0 mi West 13.8 mph - 0.00 in Rain Light Rain
8:27 PM 44.6 °F 37.8 °F 42.8 °F 93% 29.73 in 10.0 mi West 15.0 mph - 0.00 in   Overcast
9:07 PM 44.6 °F 37.4 °F 42.8 °F 93% 29.75 in 10.0 mi West 16.1 mph - N/A   Overcast
9:53 PM 45.0 °F 38.9 °F 41.0 °F 86% 29.79 in 10.0 mi WNW 12.7 mph - 0.00 in   Overcast
10:24 PM 44.6 °F 37.4 °F 42.8 °F 93% 29.79 in 10.0 mi West 16.1 mph 21.9 mph 0.00 in   Overcast
10:53 PM 45.0 °F 38.5 °F 41.0 °F 86% 29.82 in 10.0 mi WNW 13.8 mph - 0.00 in   Overcast
11:53 PM 45.0 °F 39.3 °F 41.0 °F 86% 29.83 in 10.0 mi West 11.5 mph - N/A   Overcast